Location: Dolní M?sto
(49.6309°N, 15.3888°E)
Time: 03:12:03
(UTC+00:00)

Daily predictions for brighter satellites

Satellite Brightness Start Highest point End
(mag) Time Altitude Azimuth Time Altitude Azimuth Time Altitude Azimuth
Cosmos 1626 3.3 00:02:18 26° WSW 00:03:21 30° WNW 00:06:38 10° N
Cosmos 1461 4.4 00:03:42 10° WNW 00:06:31 21° WSW 00:06:31 21° WSW
NOSS 2-2 (D) 4.5 00:01:58 10° NW 00:06:55 52° SW 00:11:38 19° SSE
Cosmos 1674 Rocket 4.3 00:06:55 28° WSW 00:08:36 41° WNW 00:12:43 10° N
Cosmos 1867 4.0 00:05:01 21° WSW 00:08:42 61° NW 00:14:09 10° NE
Gblst 52 Del rocket 4.4 00:02:39 10° W 00:08:43 76° N 00:14:17 10° E
Cosmos 2298 Rocket 4.1 00:07:41 30° SW 00:10:24 75° WNW 00:15:44 10° NNE
Cosmos 1674 4.4 00:10:51 18° W 00:12:09 22° WNW 00:15:09 10° NNW
Cosmos 1238 Rocket 4.3 00:10:23 10° NW 00:12:06 16° W 00:12:06 16° W
Thor Agena Rocket 3.7 00:07:23 10° NNE 00:12:42 74° ESE 00:15:34 28° S
USA 306 2.9 00:11:52 38° SSW 00:13:10 57° SE 00:17:17 10° ENE
Cosmos 2084 Rocket 4.3 00:12:47 26° SSE 00:13:37 29° ESE 00:16:56 10° ENE
ATLAS CENTAUR R/B 4.0 00:13:55 10° W 00:13:59 10° W 00:13:59 10° W
Cosmos 2369 Rocket 4.1 00:09:35 10° NNW 00:14:28 29° NE 00:19:20 10° ESE
USA 307 3.0 00:15:20 37° SSW 00:16:37 54° SE 00:20:43 10° ENE
SL-16 R/B 3.3 00:16:08 18° SSE 00:19:29 34° ESE 00:24:33 10° NE
CZ-4 R/B 4.4 00:18:16 10° NNE 00:22:47 47° E 00:25:30 22° SSE
ATLAS 5 CENTAUR R/B 3.4 00:12:56 10° NW 00:22:55 34° WSW 00:24:39 27° SW
ERBS 2.3 00:22:52 47° SSE 00:23:06 49° SE 00:26:05 10° ENE
Cosmos 1455 Rocket 3.0 00:19:14 10° N 00:23:43 88° W 00:26:09 27° S
Cosmos 1980 3.7 00:20:38 27° SSW 00:23:51 83° WNW 00:29:33 10° NNE
CZ-4C R/B 3.7 00:17:28 10° NW 00:23:57 33° WSW 00:27:53 23° SSW
USA 215 4.0 00:18:24 10° ENE 00:24:44 54° NNW 00:31:05 10° W
Cosmos 2333 Rocket 3.9 00:20:25 10° W 00:25:07 26° NW 00:29:52 10° NNE
COSMOS 2455 4.5 00:21:40 12° SSE 00:25:39 23° ESE 00:30:15 10° ENE
Cosmos 332 Rocket 3.7 00:28:23 29° SSW 00:30:51 86° ESE 00:35:40 10° NNE
NOSS 0 Rocket 4.2 00:29:22 21° SW 00:33:36 64° NW 00:39:50 10° NNE
USA 32 4.4 00:35:15 25° SW 00:38:04 51° W 00:43:13 10° N
Meteor 2-10 Rocket 3.9 00:32:33 10° NNW 00:38:05 54° W 00:41:17 24° SSW
Meteor 1-24 Rocket 3.9 00:34:53 21° S 00:38:41 69° E 00:44:06 10° NNE
Cosmos 1975 Rocket 3.1 00:39:39 28° SSW 00:41:57 74° W 00:46:26 10° N
UNK 3.9 00:40:50 13° SSE 00:44:53 73° ENE 00:49:31 10° N
USA 308 2.8 00:44:46 24° SW 00:47:11 80° SSE 00:51:23 10° ENE
MOS 1 Rocket 3.4 00:44:05 12° SSE 00:47:59 66° ENE 00:52:17 10° N
Cosmos 2219 Rocket 4.0 00:44:04 10° W 00:48:28 23° NW 00:52:55 10° NNE
Cosmos 1025 Rocket 3.0 00:47:03 26° SSW 00:49:25 76° W 00:53:45 10° N
Cosmos 1455 2.3 00:46:10 10° N 00:49:52 69° E 00:52:38 17° SSE
YAOGAN 11 4.3 00:46:10 13° SSE 00:50:07 76° ENE 00:54:40 10° NNW
Cosmos 1269 Rocket 4.0 00:45:37 10° NNW 00:50:51 64° WSW 00:55:07 15° S
Cosmos 1271 Rocket 3.8 00:49:38 10° N 00:53:17 43° ENE 00:56:59 10° SE
GP-B 4.1 00:51:52 10° NNW 00:55:53 34° W 00:58:07 21° SW
CZ-2D R/B 2.1 00:53:13 10° NNE 00:58:39 87° WNW 01:02:28 20° SSW
Meteor 2-5 Rocket 3.8 00:55:38 21° SSW 00:59:37 74° WNW 01:05:19 10° N
Cosmos 1300 4.4 00:57:42 10° NW 01:00:25 19° W 01:01:27 17° WSW
Lacrosse 5 2.2 00:58:31 22° SSW 01:01:38 54° SE 01:06:37 10° ENE
Cosmos 2154 Rocket 4.2 00:57:33 10° N 01:03:57 79° E 01:10:16 10° SSE
Cosmos 1544 Rocket 3.7 01:05:42 10° NNW 01:10:04 56° W 01:13:09 18° SSW
USA 305 3.0 01:07:08 14° WSW 01:10:41 73° NNW 01:14:52 10° ENE
BREEZE-M DEB (TANK) 4.0 01:00:55 10° WSW 01:13:51 84° S 01:17:34 10° E
Cosmos 2237 Rocket 3.1 01:11:28 14° WSW 01:16:03 41° NW 01:21:27 10° NNE
AQUA 3.8 01:13:13 10° NNE 01:18:01 86° WNW 01:21:49 16° SSW
SL-16 R/B 2.7 01:14:42 12° S 01:20:19 54° W 01:26:27 10° NNW
Helios 1A 2.9 01:17:06 10° SSE 01:21:19 83° WSW 01:25:35 10° NNW
SAR-Lupe-2 3.5 01:18:03 10° NNE 01:21:39 77° WNW 01:24:09 19° SSW
Lacrosse 5 rocket 1.7 01:21:54 19° SSW 01:24:24 48° SE 01:28:21 10° ENE
Resurs 1-4 Rocket 2.5 01:22:39 10° N 01:27:45 51° WNW 01:31:56 15° SW
Cosmos 2074 Rocket 4.3 01:22:05 10° NNW 01:28:10 53° W 01:33:59 11° SSW
Cosmos 1943 Rocket 2.7 01:28:12 10° NW 01:33:28 40° WSW 01:38:41 10° S
Cosmos 2297 4.0 01:27:58 10° NW 01:33:31 50° WSW 01:39:01 10° S
Cosmos 1703 3.3 01:35:52 12° S 01:39:33 84° E 01:43:31 10° NNE
Cosmos 2184 Rocket 4.5 01:37:07 10° NNW 01:42:58 43° W 01:48:45 10° SSW
NOSS 7 (E) 4.5 01:40:04 10° NW 01:43:20 79° SW 01:47:29 10° SE
ADEOS II 2.2 01:38:32 10° N 01:43:45 66° WNW 01:48:40 12° SSW
IDEFIX/ARIANE 42P 2.6 01:39:23 10° NNE 01:44:41 77° WNW 01:49:52 10° SSW
MOS 1-B Rocket 4.2 01:43:10 10° SSE 01:48:43 69° ENE 01:54:32 10° NNW
Cosmos 292 Rocket 3.8 01:48:10 12° SSW 01:52:42 81° WNW 01:57:32 10° NNE
USA 306 3.5 01:48:43 10° W 01:52:49 54° NNW 01:56:56 10° ENE
Cosmos 2084 Rocket 4.1 01:49:16 10° WSW 01:52:54 40° NW 01:56:32 10° NNE
NPP 4.5 01:50:41 10° N 01:55:39 38° WNW 02:00:35 10° SW
USA 307 3.5 01:52:09 10° W 01:56:17 55° NNW 02:00:25 10° ENE
Meteor 1-21 Rocket 4.3 01:52:31 10° S 01:58:10 84° E 02:03:46 10° NNE
ERBS 3.6 01:55:45 10° W 01:58:34 32° NNW 02:01:23 10° NE
Cosmos 2369 Rocket 2.2 01:53:22 10° NW 01:58:53 61° WSW 02:04:22 10° SSE
Gblst 52 Del rocket 4.2 01:54:55 10° WNW 02:00:40 87° NNE 02:06:11 10° ESE
IRS-1D 3.7 01:56:18 10° NNE 02:01:42 88° WNW 02:06:59 10° SSW
Cosmos 962 Rocket 4.5 01:55:47 10° NNW 02:01:54 73° W 02:07:59 10° S
EO 1 Del DPAF 3.7 01:58:40 10° N 02:01:59 41° WNW 02:05:16 10° SW
Cosmos 2228 3.3 01:57:46 10° NNW 02:02:01 50° W 02:06:12 10° S
SL-16 R/B 2.8 01:58:00 10° SW 02:03:27 48° NW 02:08:58 10° NNE
Cosmos 2251 Rocket 3.7 01:59:14 10° NNW 02:04:21 54° WSW 02:09:29 10° S
Meteor 1-28 Rocket 4.5 02:03:39 10° SSW 02:06:42 23° W 02:09:45 10° NW
Cosmos 2181 Rocket 4.4 02:00:56 10° S 02:07:05 67° E 02:13:11 10° NNE
USA 215 4.3 02:00:58 10° ENE 02:07:10 48° N 02:13:24 10° WNW
Cosmos 1656 Rocket 3.6 02:02:56 10° NNW 02:08:18 63° WSW 02:13:37 10° SSE
Cosmos 2058 Rocket 3.6 02:05:33 10° N 02:09:55 63° ENE 02:14:15 10° SSE
COSMOS 2455 3.0 02:04:57 10° SW 02:10:59 77° NW 02:17:04 10° NE
Cosmos 1190 Rocket 4.3 02:06:38 10° NNW 02:11:57 75° ENE 02:17:15 10° SSE
Cosmos 1408 3.5 02:17:31 10° S 02:21:02 47° E 02:24:32 10° NNE
MSX 4.2 02:16:01 10° N 02:21:39 54° WNW 02:27:14 10° SW
Cosmos 1603 3.9 02:21:11 10° SSW 02:26:48 77° ESE 02:32:30 10° NNE
